Location: Newark
(0.5300°S, 127.4800°E)
Time: 08:24:21
(UTC+00:00)

Vanguard 3 - Pass Details

Date: 26 September 2019
Orbit: 508 x 3262 km, 33.3° (Epoch: 20 October)

Event Time Altitude Azimuth Distance (km) Brightness Sun altitude
Rises 09:00:58 0° 273° (W) 6,140 14.5 5.2°
Reaches altitude 10° 09:07:32 10° 256° (WSW) 4,522 13.0 3.5°
Maximum altitude 09:14:21 17° 221° (SW) 3,253 10.9 1.8°
Drops below altitude 10° 09:19:26 10° 182° (S) 3,194 10.3 0.5°
Sets 09:22:56 0° 161° (SSE) 3,738 10.4 -0.3°
